Content
SEND FEEDBACK

Daily
Averages
Monthly
Summary
United States of America

HITCHLAND, TEXAS


Home > North America > United States > Texas
Elevation: 3100 feet     Latitude: 36 30N     Longitude: 101 19W

WEATHER
 
SELECT A DAY
Number of Records: 152,284;   Date Range: 12/1/98 - 11/25/14
 
SHARE

PRINT THIS DATA

[ ← Previous Day ]
WEATHER ALMANAC - FEBRUARY 13, 2013
[ Next Day → ]
[ °C ]   °F
Weather ElementAverageHighLow
Temperature31.5 °F42.1 °F (4:53 pm)21.9 °F (7:53 am)
Dewpoint21.3 °F30 °F (5:53 pm)12 °F (7:53 am)
Humidity66.5 %82 % (9:53 pm)49 % (2:53 pm)
Barometer30.02 in30.08 in (7:53 am)29.94 in (4:53 pm)
Wind Speed7.2 mph15 mph (1:53 am)
Weather ElementAverage
Visibility10 mi
Wind DirectionSSW (204.8 °)

Weather ElementTotal
Precipitation---
Heating Degree Days33 (Base 65)
Averaged from 23 records on February 13, 2013
WEATHER CONDITIONS BREAKOUT
WIND DIRECTION BREAKOUT
WEATHER BY HOUR - FEBRUARY 13, 2013
[ °C ]   °F
Local TimeTemperatureDewpointHumidityBarometerVisibilityWind DirectionWind SpeedGust SpeedPrecipitationEventsConditions
1:53 AM25.0 °F16.0 °F69 %30.06 in10.0 miWest (280°)15.0 mphClear
2:53 AM25.0 °F15.1 °F66 %30.06 in10.0 miWest (280°)12.7 mphClear
3:53 AM25.0 °F15.1 °F66 %30.04 in10.0 miWest (280°)13.8 mphClear
4:53 AM24.1 °F15.1 °F69 %30.05 in10.0 miWest (280°)8.1 mphClear
5:53 AM23.0 °F12.9 °F65 %30.06 in10.0 miWest (270°)6.9 mphClear
6:53 AM23.0 °F12.9 °F65 %30.07 in10.0 miWest (280°)10.4 mphClear
7:53 AM21.9 °F12.0 °F66 %30.08 in10.0 miWest (270°)5.8 mphClear
8:53 AM25.0 °F12.9 °F60 %30.08 in10.0 miWNW (290°)5.8 mphClear
9:53 AM28.0 °F16.0 °F61 %30.07 in10.0 miWNW (290°)9.2 mphClear
10:53 AM34.0 °F23.0 °F64 %30.07 in10.0 miWNW (300°)4.6 mphClear
11:53 AM36.0 °F25.0 °F64 %30.04 in10.0 miSSW (210°)4.6 mphClear
12:53 PM37.0 °F28.0 °F70 %30.02 in10.0 miSSW (210°)6.9 mphClear
1:53 PM39.0 °F23.0 °F53 %30.00 in10.0 miSouth (190°)8.1 mphClear
2:53 PM39.0 °F21.0 °F49 %29.97 in10.0 miSouth (190°)10.4 mphClear
3:53 PM39.9 °F25.0 °F55 %29.96 in10.0 miSouth (180°)10.4 mphClear
4:53 PM42.1 °F28.9 °F60 %29.94 in10.0 miSouth (190°)9.2 mphClear
5:53 PM39.9 °F30.0 °F68 %29.95 in10.0 miSouth (180°)5.8 mphClear
6:53 PM35.1 °F28.9 °F78 %29.98 in10.0 miCalmClear
7:53 PM32.0 °F26.1 °F79 %30.00 in10.0 miCalmClear
8:53 PM33.1 °F26.1 °F75 %30.01 in10.0 miCalmClear
9:53 PM30.0 °F25.0 °F82 %30.01 in10.0 miCalmClear
10:53 PM34.0 °F26.1 °F73 %30.00 in10.0 miWest (270°)8.1 mphClear
11:53 PM33.1 °F25.0 °F72 %30.01 in10.0 miWest (270°)9.2 mphClear
Hourly data recorded from KGUY, located miles away from Hitchland, Texas







STORIES FROM OUR PARTNERS